Regional Weather Roundup
Issued by NWS

Home | Current Version | Previous Version | Graphics & Text | Print | Product List | Glossary On
Versions: 1 2 3 4 5 6 7 8 9 10 11 12 13 14 15 16 17 18 19 20 21 22 23 24 25 26 27 28 29 30 31 32 33 34 35 36 37 38 39 40 41 42 43 44 45 46 47 48 49 50
686
ASUS43 KLSX 141307
RWRMO

WEATHER SUMMARY FOR MISSOURI
NATIONAL WEATHER SERVICE SPRINGFIELD MO
700 AM CST THU DEC 14 2017

NOTE: "FAIR" INDICATES FEW OR NO CLOUDS BELOW 12,000 FEET WITH NO
       SIGNIFICANT WEATHER AND/OR OBSTRUCTIONS TO VISIBILITY.
       CURRENT SKY AND/OR WEATHER CONDITIONS ARE NOT AVAILABLE FOR
       CHILLICOTHE AND FARMINGTON.

MOZ001>031-035>038-043-044-053-054-141400-
...NORTHERN AND WESTERN MISSOURI...

CITY           SKY/WX    TMP DP  RH WIND       PRES   REMARKS
KANSAS CTY INT CLOUDY    35  23  61 N3        30.05R
KANSAS C DTWN  CLOUDY    38  22  52 N6        30.06R
LEE`S SUMMIT   CLOUDY    36  23  59 N8        30.06R WCI  30
ST JOSEPH      CLOUDY    35  26  69 W5        30.07R
CHILLICOTHE      N/A     29  20  69 CALM      30.07R
KIRKSVILLE     CLOUDY    28  24  85 N9        30.04R WCI  19

$$
MOZ066>068-077>081-088>096-101>105-141400-
...SOUTHWEST MISSOURI...

CITY           SKY/WX    TMP DP  RH WIND       PRES   REMARKS
SPRINGFIELD    CLOUDY    35  28  75 N7        30.01R WCI  29
JOPLIN         MOCLDY    29  27  92 CALM      30.05R
BRANSON        CLOUDY    34  27  75 NW6       30.02R WCI  29

$$
MOZ032>034-039>042-045>050-055>058-069>072-141400-
...CENTRAL MISSOURI...

CITY           SKY/WX    TMP DP  RH WIND       PRES   REMARKS
COLUMBIA       CLOUDY    32  22  66 NW6       30.03R WCI  26
JEFFERSON CITY CLOUDY    33  22  63 NW6       30.04R WCI  28
ROLLA          CLOUDY    31  21  66 NW7       30.00R WCI  24
SEDALIA        MOCLDY    29  23  78 NW7       30.05R WCI  22
WHITEMAN AFB   MOCLDY    33  22  66 N8        30.01R WCI  25
WARRENSBURG    CLOUDY    34  23  64 N3        30.05S
OSAGE BEACH    MOCLDY    33  21  61 N5        30.03R WCI  29

$$
MOZ051-052-059>065-141400-
...EAST CENTRAL MISSOURI...

CITY           SKY/WX    TMP DP  RH WIND       PRES   REMARKS
ST LOUIS INTL  CLOUDY    30  19  63 N9        30.04R WCI  22
SPIRIT OF STL  CLOUDY    32  21  64 N7        30.04R WCI  26
ST CHARLES     CLOUDY    29  17  61 N10       30.05R WCI  20

$$
MOZ072>076-082>087-097>100-106>115-141400-
...SOUTH CENTRAL AND SOUTHEAST MISSOURI...

CITY           SKY/WX    TMP DP  RH WIND       PRES   REMARKS
CAPE GIRARDEAU CLOUDY    37  25  61 N9        29.99R
FARMINGTON     CLOUDY    33  23  66 NW7       29.99R WCI  27
POPLAR BLUFF   CLOUDY    38  25  59 N13       29.99R WCI  30
WEST PLAINS    MOCLDY    34  23  64 N6        29.99R WCI  29

$$



USA.gov is the U.S. government's official web portal to all federal, state and local government web resources and services.